| time (UTC) | temp F | wind direction | speed MPH | gust MPH | rain 1hr in | rain 24hr in | rain mn in | humidity % | barometer mb |
| 20260507132123 | 55 | 306 | 12.0 | 29.0 | 0.00 | 0.00 | 0.00 | 54 | 1009.9 |
| 20260507131124 | 55 | 302 | 10.0 | 22.0 | 0.00 | 0.00 | 0.00 | 54 | 1009.7 |
| 20260507130122 | 55 | 295 | 9.0 | 22.0 | 0.00 | 0.00 | 0.00 | 56 | 1009.7 |
| 20260507125124 | 55 | 286 | 9.0 | 22.0 | 0.00 | 0.00 | 0.00 | 56 | 1009.5 |
| 20260507124122 | 54 | 286 | 10.0 | 20.0 | 0.00 | 0.00 | 0.00 | 57 | 1009.5 |
| 20260507123144 | 54 | 282 | 8.0 | 18.0 | 0.00 | 0.00 | 0.00 | 58 | 1009.4 |
| 20260507122144 | 54 | 280 | 8.0 | 18.0 | 0.00 | 0.00 | 0.00 | 58 | 1009.3 |
| 20260507121143 | 54 | 280 | 8.0 | 18.0 | 0.00 | 0.00 | 0.00 | 58 | 1009.3 |
| 20260507120123 | 54 | 275 | 7.0 | 14.0 | 0.00 | 0.00 | 0.00 | 58 | 1009.2 |
| 20260507115122 | 54 | 283 | 8.0 | 18.0 | 0.00 | 0.00 | 0.00 | 58 | 1009.0 |
| 20260507114122 | 55 | 273 | 7.0 | 17.0 | 0.00 | 0.00 | 0.00 | 58 | 1009.0 |
| 20260507113123 | 55 | 276 | 7.0 | 16.0 | 0.00 | 0.00 | 0.00 | 59 | 1009.0 |
| 20260507112122 | 55 | 274 | 7.0 | 13.0 | 0.00 | 0.00 | 0.00 | 60 | 1008.9 |
| 20260507111144 | 55 | 270 | 8.0 | 16.0 | 0.00 | 0.00 | 0.00 | 60 | 1008.7 |
| 20260507110122 | 55 | 269 | 7.0 | 17.0 | 0.00 | 0.00 | 0.00 | 61 | 1008.7 |
| 20260507105122 | 55 | 270 | 6.0 | 15.0 | 0.00 | 0.00 | 0.00 | 62 | 1008.7 |
| 20260507104123 | 54 | 267 | 6.0 | 13.0 | 0.00 | 0.00 | 0.00 | 62 | 1008.7 |
| 20260507103122 | 54 | 266 | 5.0 | 13.0 | 0.00 | 0.00 | 0.00 | 63 | 1008.7 |
| 20260507102125 | 54 | 261 | 1.0 | 9.0 | 0.00 | 0.00 | 0.00 | 63 | 1008.7 |
| 20260507101122 | 54 | 260 | 0.0 | 7.0 | 0.00 | 0.00 | 0.00 | 63 | 1008.5 |
| 20260507100123 | 54 | 266 | 1.0 | 10.0 | 0.00 | 0.00 | 0.00 | 63 | 1008.5 |
| 20260507095143 | 54 | 264 | 0.0 | 8.0 | 0.00 | 0.00 | 0.00 | 62 | 1008.5 |
| 20260507094123 | 54 | 266 | 0.0 | 8.0 | 0.00 | 0.00 | 0.00 | 62 | 1008.5 |
| 20260507093123 | 54 | 270 | 2.0 | 9.0 | 0.00 | 0.00 | 0.00 | 62 | 1008.5 |
| 20260507092122 | 54 | 237 | 1.0 | 7.0 | 0.00 | 0.00 | 0.00 | 62 | 1008.5 |
| 20260507091122 | 54 | 219 | 1.0 | 8.0 | 0.00 | 0.00 | 0.00 | 62 | 1008.4 |
| 20260507090122 | 54 | 247 | 0.0 | 5.0 | 0.00 | 0.00 | 0.00 | 62 | 1008.4 |
| 20260507085123 | 55 | 248 | 0.0 | 0.0 | 0.00 | 0.00 | 0.00 | 62 | 1008.4 |
| 20260507084122 | 55 | 241 | 0.0 | 6.0 | 0.00 | 0.00 | 0.00 | 62 | 1008.4 |
| 20260507083124 | 55 | 225 | 1.0 | 7.0 | 0.00 | 0.00 | 0.00 | 61 | 1008.4 |
| 20260507082122 | 55 | 248 | 0.0 | 0.0 | 0.00 | 0.00 | 0.00 | 61 | 1008.4 |
| 20260507081143 | 55 | 243 | 4.0 | 11.0 | 0.00 | 0.00 | 0.00 | 61 | 1008.5 |
| 20260507080124 | 55 | 256 | 5.0 | 13.0 | 0.00 | 0.00 | 0.00 | 61 | 1008.5 |
| 20260507075122 | 55 | 229 | 5.0 | 12.0 | 0.00 | 0.00 | 0.00 | 61 | 1008.4 |
| 20260507074123 | 55 | 238 | 4.0 | 13.0 | 0.00 | 0.00 | 0.00 | 60 | 1008.4 |
| 20260507073122 | 56 | 227 | 4.0 | 13.0 | 0.00 | 0.00 | 0.00 | 59 | 1008.5 |
| 20260507072143 | 56 | 225 | 3.0 | 10.0 | 0.00 | 0.00 | 0.00 | 59 | 1008.5 |
| 20260507071143 | 56 | 240 | 1.0 | 9.0 | 0.00 | 0.00 | 0.00 | 57 | 1008.5 |
| 20260507070122 | 56 | 203 | 0.0 | 0.0 | 0.00 | 0.00 | 0.00 | 57 | 1008.5 |
| 20260507065123 | 56 | 270 | 0.0 | 0.0 | 0.00 | 0.00 | 0.00 | 56 | 1008.5 |
| 20260507064144 | 56 | 270 | 0.0 | 0.0 | 0.00 | 0.00 | 0.00 | 56 | 1008.5 |
| 20260507063124 | 56 | 270 | 0.0 | 0.0 | 0.00 | 0.00 | 0.00 | 54 | 1008.5 |
| 20260507062122 | 57 | 180 | 0.0 | 0.0 | 0.00 | 0.00 | 0.00 | 56 | 1009.0 |
| 20260507061122 | 58 | 303 | 1.0 | 8.0 | 0.00 | 0.00 | 0.00 | 51 | 1008.9 |
| 20260507060143 | 57 | 315 | 0.0 | 2.0 | 0.00 | 0.00 | 0.00 | 53 | 1008.9 |
| 20260507055122 | 57 | 270 | 0.0 | 0.0 | 0.00 | 0.00 | 0.00 | 54 | 1008.7 |
| 20260507054122 | 58 | 68 | 0.0 | 0.0 | 0.00 | 0.00 | 0.00 | 54 | 1008.7 |
| 20260507053143 | 58 | 292 | 0.0 | 7.0 | 0.00 | 0.00 | 0.00 | 53 | 1008.9 |
| 20260507052144 | 58 | 279 | 3.0 | 12.0 | 0.00 | 0.00 | 0.00 | 53 | 1008.8 |
| 20260507051122 | 58 | 279 | 3.0 | 11.0 | 0.00 | 0.00 | 0.00 | 53 | 1008.8 |
| 20260507050122 | 58 | 276 | 0.0 | 7.0 | 0.00 | 0.00 | 0.00 | 53 | 1008.5 |
| 20260507045122 | 59 | 270 | 0.0 | 2.0 | 0.00 | 0.00 | 0.00 | 53 | 1008.5 |
| 20260507044122 | 59 | 274 | 1.0 | 11.0 | 0.00 | 0.00 | 0.00 | 52 | 1008.5 |
| 20260507043123 | 59 | 272 | 4.0 | 12.0 | 0.00 | 0.00 | 0.00 | 51 | 1008.4 |
| 20260507042122 | 60 | 259 | 1.0 | 8.0 | 0.00 | 0.00 | 0.00 | 48 | 1008.4 |
| 20260507041123 | 60 | 229 | 1.0 | 11.0 | 0.00 | 0.00 | 0.00 | 45 | 1008.3 |
| 20260507040122 | 61 | 270 | 0.0 | 2.0 | 0.00 | 0.00 | 0.00 | 41 | 1007.9 |
| 20260507035124 | 61 | 270 | 0.0 | 0.0 | 0.00 | 0.00 | 0.00 | 40 | 1007.5 |
| 20260507034143 | 62 | 77 | 0.0 | 10.0 | 0.00 | 0.00 | 0.00 | 39 | 1007.5 |
| 20260507033124 | 62 | 90 | 1.0 | 10.0 | 0.00 | 0.00 | 0.00 | 39 | 1007.4 |
| 20260507032122 | 62 | 255 | 4.0 | 12.0 | 0.00 | 0.00 | 0.00 | 38 | 1008.2 |
| 20260507031122 | 62 | 226 | 5.0 | 14.0 | 0.00 | 0.00 | 0.00 | 37 | 1008.2 |
| 20260507030123 | 63 | 185 | 3.0 | 17.0 | 0.00 | 0.00 | 0.00 | 35 | 1008.0 |
| 20260507025143 | 63 | 211 | 9.0 | 24.0 | 0.00 | 0.00 | 0.00 | 35 | 1008.0 |
| 20260507024123 | 63 | 243 | 5.0 | 19.0 | 0.00 | 0.00 | 0.00 | 35 | 1008.0 |
| 20260507023122 | 63 | 200 | 7.0 | 18.0 | 0.00 | 0.00 | 0.00 | 31 | 1008.0 |
| 20260507022122 | 64 | 200 | 3.0 | 14.0 | 0.00 | 0.00 | 0.00 | 31 | 1008.0 |
| 20260507021145 | 64 | 182 | 3.0 | 12.0 | 0.00 | 0.00 | 0.00 | 30 | 1007.8 |
| 20260507020122 | 64 | 176 | 4.0 | 11.0 | 0.00 | 0.00 | 0.00 | 30 | 1007.5 |
| 20260507015145 | 64 | 164 | 5.0 | 13.0 | 0.00 | 0.00 | 0.00 | 30 | 1007.2 |
| 20260507014143 | 65 | 121 | 5.0 | 15.0 | 0.00 | 0.00 | 0.00 | 29 | 1007.2 |
| 20260507013122 | 65 | 127 | 4.0 | 13.0 | 0.00 | 0.00 | 0.00 | 29 | 1007.2 |
| 20260507012122 | 65 | 134 | 4.0 | 12.0 | 0.00 | 0.00 | 0.00 | 29 | 1007.3 |
| 20260507011122 | 65 | 148 | 6.0 | 14.0 | 0.00 | 0.00 | 0.00 | 29 | 1007.2 |
| 20260507010123 | 66 | 118 | 6.0 | 17.0 | 0.00 | 0.00 | 0.00 | 28 | 1007.2 |
| 20260507005122 | 66 | 126 | 6.0 | 12.0 | 0.00 | 0.00 | 0.00 | 28 | 1007.0 |
| 20260507004123 | 65 | 134 | 7.0 | 15.0 | 0.00 | 0.00 | 0.00 | 28 | 1007.0 |
| 20260507003122 | 66 | 128 | 6.0 | 16.0 | 0.00 | 0.00 | 0.00 | 28 | 1006.9 |
| 20260507002123 | 66 | 120 | 5.0 | 13.0 | 0.00 | 0.00 | 0.00 | 28 | 1007.0 |
| 20260507001122 | 66 | 126 | 8.0 | 17.0 | 0.00 | 0.00 | 0.00 | 27 | 1007.0 |
| 20260507000122 | 67 | 112 | 7.0 | 15.0 | 0.00 | 0.00 | 0.00 | 27 | 1006.9 |
| 20260506235123 | 67 | 131 | 2.0 | 12.0 | 0.00 | 0.00 | 0.00 | 27 | 1007.0 |
| 20260506234122 | 67 | 129 | 5.0 | 13.0 | 0.00 | 0.00 | 0.00 | 27 | 1007.0 |
| 20260506233124 | 67 | 127 | 7.0 | 18.0 | 0.00 | 0.00 | 0.00 | 26 | 1006.9 |
| 20260506232122 | 69 | 134 | 3.0 | 11.0 | 0.00 | 0.00 | 0.00 | 25 | 1007.0 |
| 20260506231122 | 68 | 133 | 4.0 | 11.0 | 0.00 | 0.00 | 0.00 | 26 | 1007.0 |
| 20260506230122 | 67 | 128 | 7.0 | 16.0 | 0.00 | 0.00 | 0.00 | 26 | 1007.0 |
| 20260506225143 | 68 | 138 | 6.0 | 15.0 | 0.00 | 0.00 | 0.00 | 26 | 1007.2 |
| 20260506224123 | 68 | 123 | 7.0 | 15.0 | 0.00 | 0.00 | 0.00 | 26 | 1007.2 |
| 20260506223143 | 67 | 127 | 7.0 | 16.0 | 0.00 | 0.00 | 0.00 | 26 | 1007.4 |
| 20260506222144 | 67 | 117 | 8.0 | 20.0 | 0.00 | 0.00 | 0.00 | 26 | 1007.4 |
| 20260506221122 | 68 | 137 | 5.0 | 13.0 | 0.00 | 0.00 | 0.00 | 26 | 1007.5 |
| 20260506220145 | 69 | 121 | 7.0 | 18.0 | 0.00 | 0.00 | 0.00 | 25 | 1007.8 |
| 20260506215122 | 68 | 129 | 8.0 | 20.0 | 0.00 | 0.00 | 0.00 | 26 | 1007.9 |
| 20260506214123 | 69 | 113 | 7.0 | 18.0 | 0.00 | 0.00 | 0.00 | 25 | 1007.9 |
| 20260506213124 | 69 | 114 | 6.0 | 17.0 | 0.00 | 0.00 | 0.00 | 25 | 1008.0 |
| 20260506212123 | 68 | 144 | 4.0 | 16.0 | 0.00 | 0.00 | 0.00 | 25 | 1008.2 |
| 20260506211144 | 67 | 176 | 6.0 | 18.0 | 0.00 | 0.00 | 0.00 | 26 | 1008.3 |
| 20260506210123 | 68 | 116 | 8.0 | 19.0 | 0.00 | 0.00 | 0.00 | 26 | 1008.4 |
| 20260506205123 | 67 | 124 | 8.0 | 20.0 | 0.00 | 0.00 | 0.00 | 26 | 1008.5 |
| 20260506204123 | 66 | 120 | 6.0 | 20.0 | 0.00 | 0.00 | 0.00 | 26 | 1008.5 |
| 20260506203123 | 66 | 127 | 9.0 | 23.0 | 0.00 | 0.00 | 0.00 | 26 | 1008.5 |
| 20260506202144 | 66 | 168 | 6.0 | 20.0 | 0.00 | 0.00 | 0.00 | 26 | 1008.8 |
| 20260506201124 | 65 | 151 | 9.0 | 20.0 | 0.00 | 0.00 | 0.00 | 27 | 1008.9 |
| 20260506200148 | 64 | 140 | 9.0 | 21.0 | 0.00 | 0.00 | 0.00 | 28 | 1009.2 |
| 20260506195124 | 64 | 181 | 8.0 | 20.0 | 0.00 | 0.00 | 0.00 | 28 | 1009.0 |
| 20260506194144 | 64 | 141 | 8.0 | 20.0 | 0.00 | 0.00 | 0.00 | 28 | 1009.0 |
| 20260506193124 | 63 | 161 | 8.0 | 23.0 | 0.00 | 0.00 | 0.00 | 28 | 1009.3 |
| 20260506192123 | 63 | 134 | 9.0 | 23.0 | 0.00 | 0.00 | 0.00 | 28 | 1009.2 |
| 20260506191125 | 62 | 157 | 7.0 | 23.0 | 0.00 | 0.00 | 0.00 | 29 | 1009.5 |
| 20260506190123 | 61 | 164 | 8.0 | 26.0 | 0.00 | 0.00 | 0.00 | 30 | 1009.5 |
| 20260506185123 | 61 | 161 | 8.0 | 20.0 | 0.00 | 0.00 | 0.00 | 30 | 1009.7 |
| 20260506184124 | 60 | 181 | 10.0 | 25.0 | 0.00 | 0.00 | 0.00 | 30 | 1009.7 |
| 20260506183123 | 61 | 139 | 9.0 | 23.0 | 0.00 | 0.00 | 0.00 | 30 | 1009.8 |
| 20260506182123 | 60 | 152 | 6.0 | 27.0 | 0.00 | 0.00 | 0.00 | 32 | 1009.9 |
| 20260506181125 | 60 | 119 | 12.0 | 30.0 | 0.00 | 0.00 | 0.00 | 32 | 1009.8 |
| 20260506180123 | 59 | 130 | 11.0 | 28.0 | 0.00 | 0.00 | 0.00 | 33 | 1010.0 |
| 20260506175124 | 59 | 119 | 11.0 | 30.0 | 0.00 | 0.00 | 0.00 | 33 | 1010.2 |
| 20260506174123 | 57 | 131 | 13.0 | 27.0 | 0.00 | 0.00 | 0.00 | 33 | 1010.2 |
| 20260506173125 | 57 | 146 | 11.0 | 23.0 | 0.00 | 0.00 | 0.00 | 33 | 1010.3 |
| 20260506172123 | 57 | 133 | 12.0 | 27.0 | 0.00 | 0.00 | 0.00 | 34 | 1010.5 |
| 20260506171123 | 56 | 142 | 11.0 | 23.0 | 0.00 | 0.00 | 0.00 | 35 | 1010.7 |
| 20260506170124 | 56 | 131 | 12.0 | 25.0 | 0.00 | 0.00 | 0.00 | 35 | 1010.8 |
| 20260506165123 | 56 | 146 | 9.0 | 21.0 | 0.00 | 0.00 | 0.00 | 34 | 1010.9 |
| 20260506164125 | 56 | 123 | 11.0 | 24.0 | 0.00 | 0.00 | 0.00 | 35 | 1010.9 |
| 20260506163144 | 55 | 150 | 10.0 | 23.0 | 0.00 | 0.00 | 0.00 | 37 | 1011.0 |
| 20260506162125 | 55 | 147 | 10.0 | 22.0 | 0.00 | 0.00 | 0.00 | 37 | 1011.2 |
| 20260506161144 | 55 | 132 | 8.0 | 20.0 | 0.00 | 0.00 | 0.00 | 37 | 1011.3 |
| 20260506160123 | 53 | 144 | 10.0 | 22.0 | 0.00 | 0.00 | 0.00 | 39 | 1011.4 |
| 20260506155145 | 51 | 157 | 7.0 | 23.0 | 0.00 | 0.00 | 0.00 | 39 | 1011.5 |
| 20260506154123 | 51 | 158 | 10.0 | 26.0 | 0.00 | 0.00 | 0.00 | 40 | 1011.5 |
| 20260506153125 | 50 | 160 | 11.0 | 26.0 | 0.00 | 0.00 | 0.00 | 41 | 1011.5 |
| 20260506152123 | 49 | 163 | 11.0 | 25.0 | 0.00 | 0.00 | 0.00 | 41 | 1011.7 |
| 20260506151123 | 49 | 163 | 11.0 | 27.0 | 0.00 | 0.00 | 0.00 | 41 | 1011.8 |
| 20260506150123 | 48 | 175 | 12.0 | 26.0 | 0.00 | 0.00 | 0.00 | 42 | 1011.9 |
| 20260506145144 | 47 | 180 | 11.0 | 25.0 | 0.00 | 0.00 | 0.00 | 42 | 1012.0 |
| 20260506144145 | 47 | 181 | 10.0 | 27.0 | 0.00 | 0.00 | 0.00 | 42 | 1012.0 |
| 20260506143147 | 46 | 156 | 10.0 | 28.0 | 0.00 | 0.00 | 0.00 | 42 | 1012.3 |
| 20260506142125 | 46 | 160 | 8.0 | 24.0 | 0.00 | 0.00 | 0.00 | 42 | 1012.2 |
| 20260506141144 | 45 | 161 | 10.0 | 26.0 | 0.00 | 0.00 | 0.00 | 44 | 1012.2 |
| 20260506140123 | 43 | 130 | 11.0 | 27.0 | 0.00 | 0.00 | 0.00 | 45 | 1012.4 |
| 20260506135123 | 43 | 170 | 10.0 | 26.0 | 0.00 | 0.00 | 0.00 | 46 | 1012.5 |
| 20260506134123 | 42 | 169 | 10.0 | 25.0 | 0.00 | 0.00 | 0.00 | 47 | 1012.5 |
| 20260506133125 | 41 | 152 | 10.0 | 23.0 | 0.00 | 0.00 | 0.00 | 48 | 1012.8 |